Time,TemperatureF,DewpointF,PressureIn,WindDirection,WindDirectionDegrees,WindSpeedMPH,WindSpeedGustMPH,Humidity,HourlyPrecipIn,Conditions,Clouds,dailyrainin,SolarRadiationWatts/m^2,SoftwareType,DateUTC
2016-02-13 00:13:00,45.7,22.0,30.18,NW,313,12.0,15.0,39,0.00,,,0.00,0,weatherlink.com 1.10,2016-02-13 08:13:00,
2016-02-13 00:28:00,45.6,21.0,30.18,WNW,295,12.0,13.0,38,0.00,,,0.00,0,weatherlink.com 1.10,2016-02-13 08:28:00,
2016-02-13 00:43:00,44.4,22.0,30.18,NW,304,9.0,12.0,41,0.00,,,0.00,0,weatherlink.com 1.10,2016-02-13 08:43:00,
2016-02-13 00:58:00,44.7,24.0,30.18,NW,321,7.0,10.0,44,0.00,,,0.00,0,weatherlink.com 1.10,2016-02-13 08:58:00,
2016-02-13 01:13:00,45.5,24.0,30.18,NW,305,11.0,13.0,43,0.00,,,0.00,0,weatherlink.com 1.10,2016-02-13 09:13:00,
2016-02-13 01:28:00,47.2,24.0,30.18,WNW,296,10.0,14.0,40,0.00,,,0.00,0,weatherlink.com 1.10,2016-02-13 09:28:00,
2016-02-13 01:43:00,47.3,24.0,30.18,NW,323,8.0,12.0,40,0.00,,,0.00,0,weatherlink.com 1.10,2016-02-13 09:43:00,
2016-02-13 01:58:00,48.1,23.0,30.18,West,278,8.0,13.0,38,0.00,,,0.00,0,weatherlink.com 1.10,2016-02-13 09:58:00,
2016-02-13 02:28:00,47.0,22.0,30.18,WNW,294,5.0,13.0,38,0.00,,,0.00,0,weatherlink.com 1.10,2016-02-13 10:28:00,
2016-02-13 02:43:00,47.5,23.0,30.18,NW,317,8.0,15.0,38,0.00,,,0.00,0,weatherlink.com 1.10,2016-02-13 10:43:00,
2016-02-13 02:58:00,47.4,23.0,30.18,NW,309,11.0,15.0,38,0.00,,,0.00,0,weatherlink.com 1.10,2016-02-13 10:58:00,
2016-02-13 03:13:00,46.0,21.0,30.18,NW,309,9.0,13.0,37,0.00,,,0.00,0,weatherlink.com 1.10,2016-02-13 11:13:00,
2016-02-13 03:28:00,44.8,20.0,30.18,NW,322,9.0,14.0,37,0.00,,,0.00,0,weatherlink.com 1.10,2016-02-13 11:28:00,
2016-02-13 03:43:00,44.0,22.0,30.18,WNW,301,8.0,12.0,41,0.00,,,0.00,0,weatherlink.com 1.10,2016-02-13 11:43:00,
2016-02-13 03:58:00,42.8,21.0,30.18,NW,318,10.0,13.0,42,0.00,,,0.00,0,weatherlink.com 1.10,2016-02-13 11:58:00,
2016-02-13 04:13:00,42.0,21.0,30.18,NW,323,7.0,13.0,43,0.00,,,0.00,0,weatherlink.com 1.10,2016-02-13 12:13:00,
2016-02-13 04:28:00,41.8,21.0,30.18,NW,319,9.0,12.0,43,0.00,,,0.00,0,weatherlink.com 1.10,2016-02-13 12:28:00,
2016-02-13 04:43:00,42.6,20.0,30.19,NW,314,9.0,13.0,40,0.00,,,0.00,0,weatherlink.com 1.10,2016-02-13 12:43:00,
2016-02-13 05:13:00,42.3,19.0,30.20,NW,315,6.0,8.0,39,0.00,,,0.00,0,weatherlink.com 1.10,2016-02-13 13:13:00,
2016-02-13 05:28:00,42.3,18.0,30.20,NW,324,10.0,14.0,38,0.00,,,0.00,0,weatherlink.com 1.10,2016-02-13 13:28:00,
2016-02-13 05:43:00,43.7,16.0,30.20,NW,322,11.0,15.0,33,0.00,,,0.00,0,weatherlink.com 1.10,2016-02-13 13:43:00,
2016-02-13 06:13:00,40.7,17.0,30.21,West,280,5.0,10.0,39,0.00,,,0.00,0,weatherlink.com 1.10,2016-02-13 14:13:00,
2016-02-13 06:28:00,38.9,17.0,30.22,NW,317,7.0,9.0,42,0.00,,,0.00,0,weatherlink.com 1.10,2016-02-13 14:28:00,
2016-02-13 06:43:00,39.9,15.0,30.22,NNW,328,5.0,8.0,36,0.00,,,0.00,0,weatherlink.com 1.10,2016-02-13 14:43:00,
2016-02-13 06:58:00,39.9,13.0,30.22,WNW,286,6.0,9.0,34,0.00,,,0.00,5,weatherlink.com 1.10,2016-02-13 14:58:00,
2016-02-13 07:29:00,37.6,19.0,30.24,WNW,287,5.0,6.0,47,0.00,,,0.00,32,weatherlink.com 1.10,2016-02-13 15:29:00,
2016-02-13 07:44:00,37.3,19.0,30.25,WNW,303,7.0,8.0,47,0.00,,,0.00,76,weatherlink.com 1.10,2016-02-13 15:44:00,
2016-02-13 07:59:00,39.6,20.0,30.26,ESE,112,3.0,8.0,45,0.00,,,0.00,132,weatherlink.com 1.10,2016-02-13 15:59:00,
2016-02-13 08:14:00,41.1,17.0,30.26,NW,313,3.0,10.0,38,0.00,,,0.00,195,weatherlink.com 1.10,2016-02-13 16:14:00,
2016-02-13 08:29:00,41.5,20.0,30.27,West,264,0.0,4.0,42,0.00,,,0.00,258,weatherlink.com 1.10,2016-02-13 16:29:00,
2016-02-13 08:44:00,41.7,18.0,30.27,NW,306,4.0,7.0,38,0.00,,,0.00,306,weatherlink.com 1.10,2016-02-13 16:44:00,
2016-02-13 08:59:00,42.8,19.0,30.28,West,265,5.0,7.0,39,0.00,,,0.00,348,weatherlink.com 1.10,2016-02-13 16:59:00,
2016-02-13 09:14:00,43.9,20.0,30.27,West,280,4.0,6.0,39,0.00,,,0.00,394,weatherlink.com 1.10,2016-02-13 17:14:00,
2016-02-13 09:29:00,46.6,21.0,30.28,SSE,162,2.0,5.0,37,0.00,,,0.00,438,weatherlink.com 1.10,2016-02-13 17:29:00,
2016-02-13 09:59:00,47.9,25.0,30.28,South,177,2.0,6.0,41,0.00,,,0.00,513,weatherlink.com 1.10,2016-02-13 17:59:00,
2016-02-13 10:14:00,48.6,25.0,30.27,SSE,158,2.0,4.0,40,0.00,,,0.00,547,weatherlink.com 1.10,2016-02-13 18:14:00,
2016-02-13 10:30:00,48.6,26.0,30.27,SSW,213,0.0,6.0,41,0.00,,,0.00,575,weatherlink.com 1.10,2016-02-13 18:30:00,
2016-02-13 10:45:00,49.9,27.0,30.27,South,174,3.0,6.0,41,0.00,,,0.00,603,weatherlink.com 1.10,2016-02-13 18:45:00,
2016-02-13 11:00:00,51.0,27.0,30.27,SSE,158,4.0,9.0,40,0.00,,,0.00,626,weatherlink.com 1.10,2016-02-13 19:00:00,
2016-02-13 11:15:00,52.0,28.0,30.26,East,93,2.0,6.0,39,0.00,,,0.00,643,weatherlink.com 1.10,2016-02-13 19:15:00,
2016-02-13 11:30:00,54.1,29.0,30.25,South,170,2.0,7.0,38,0.00,,,0.00,659,weatherlink.com 1.10,2016-02-13 19:30:00,
2016-02-13 11:45:00,55.1,26.0,30.25,SSE,156,3.0,9.0,33,0.00,,,0.00,671,weatherlink.com 1.10,2016-02-13 19:45:00,
2016-02-13 12:00:00,55.3,26.0,30.24,SSE,155,2.0,7.0,33,0.00,,,0.00,677,weatherlink.com 1.10,2016-02-13 20:00:00,
2016-02-13 12:15:00,56.3,27.0,30.24,South,170,2.0,9.0,33,0.00,,,0.00,680,weatherlink.com 1.10,2016-02-13 20:15:00,
2016-02-13 12:30:00,57.4,27.0,30.23,NNE,18,0.0,7.0,31,0.00,,,0.00,677,weatherlink.com 1.10,2016-02-13 20:30:00,
2016-02-13 12:45:00,57.1,25.0,30.23,NE,47,0.0,6.0,29,0.00,,,0.00,673,weatherlink.com 1.10,2016-02-13 20:45:00,
2016-02-13 13:00:00,58.3,24.0,30.21,ESE,119,0.0,9.0,27,0.00,,,0.00,666,weatherlink.com 1.10,2016-02-13 21:00:00,
2016-02-13 13:15:00,59.0,24.0,30.20,ESE,118,3.0,10.0,26,0.00,,,0.00,657,weatherlink.com 1.10,2016-02-13 21:15:00,
2016-02-13 13:30:00,59.3,23.0,30.20,SSE,160,6.0,11.0,25,0.00,,,0.00,640,weatherlink.com 1.10,2016-02-13 21:30:00,
2016-02-13 13:45:00,59.4,21.0,30.18,ESE,121,5.0,9.0,23,0.00,,,0.00,622,weatherlink.com 1.10,2016-02-13 21:45:00,
2016-02-13 14:00:00,60.2,20.0,30.18,South,179,3.0,12.0,21,0.00,,,0.00,598,weatherlink.com 1.10,2016-02-13 22:00:00,
2016-02-13 14:15:00,60.3,19.0,30.17,ESE,111,3.0,10.0,20,0.00,,,0.00,570,weatherlink.com 1.10,2016-02-13 22:15:00,
2016-02-13 14:30:00,60.1,20.0,30.17,SSE,163,2.0,9.0,21,0.00,,,0.00,538,weatherlink.com 1.10,2016-02-13 22:30:00,
2016-02-13 15:00:00,60.4,20.0,30.16,East,87,3.0,5.0,21,0.00,,,0.00,469,weatherlink.com 1.10,2016-02-13 23:00:00,
2016-02-13 15:15:00,60.5,19.0,30.17,SE,126,2.0,5.0,20,0.00,,,0.00,427,weatherlink.com 1.10,2016-02-13 23:15:00,
2016-02-13 15:30:00,60.9,21.0,30.16,SW,223,2.0,6.0,21,0.00,,,0.00,343,weatherlink.com 1.10,2016-02-13 23:30:00,
2016-02-13 15:45:00,60.9,21.0,30.16,South,170,3.0,6.0,21,0.00,,,0.00,348,weatherlink.com 1.10,2016-02-13 23:45:00,
2016-02-13 16:00:00,59.9,20.0,30.17,South,169,3.0,6.0,21,0.00,,,0.00,165,weatherlink.com 1.10,2016-02-14 00:00:00,